Powrót do katalogu

COSMOS 2251 DEB

AktywnyLEO
NORAD 36074·DEBRIS·🇷🇺 Russia

Wystrzelony Jun 16, 1993 z Plesetsk Cosmodrome

Loading…

Następne Przeloty (najbliższe 24 godziny)

TLE

Starzejące sięSource: Space-Track

Epoka: Sep 11, 2026, 06:02 UTC

1 36074U 93036AYM 26254.25208185  .00001843  00000-0  52523-3 0  9997
2 36074  73.9912 191.6842 0045298 222.5738 137.1905 14.45372381898459

Śledź COSMOS 2251 DEB w czasie rzeczywistym z AllMySat

Download on the App Store